Weather History for Tucson Davis Monthan, AZ

Change the Weather History Date:

Thursday, February 27, 2014

  Actual Average Record
Temperature  
Mean Temperature 62 °F -  
Max Temperature 76 °F 71 °F 88 °F (1986)
Min Temperature 48 °F 42 °F 28 °F (1977)
Degree Days  
Heating Degree Days 3    
Growing Degree Days 12 (Base 50)    
Moisture  
Dew Point 35 °F    
Average Humidity 37    
Maximum Humidity 57    
Minimum Humidity 21    
Precipitation  
Precipitation 0.00 in - - ()
Sea Level Pressure  
Sea Level Pressure 29.88 in    
Wind  
Wind Speed 6 mph (SSW)    
Max Wind Speed 17 mph    
Max Gust Speed 23 mph    
Visibility 10 miles    
Events      
Averages and records for this station are not official NWS values.
T = Trace of Precipitation, MM = Missing Value Source: NWS Daily Summary

Daily Weather History Graph

Daily Weather History Graph

Search for Another Location

Airport:

Trip Planner

Search our weather history database for the weather conditions in past years. The results will help you decide how hot, cold, wet, or windy it might be!

Date:

Astronomy

Feb. 27, 2014 Rise Set
Actual Time 6:53 AM MST 6:19 PM MST
Civil Twilight 6:28 AM MST 6:44 PM MST
Nautical Twilight 6:00 AM MST 7:12 PM MST
Astronomical Twilight 5:31 AM MST 7:41 PM MST
Moon 5:23 AM MST (2/27) 4:52 PM MST (2/27)
Length of Visible Light 12h 15m
Length of Day
11h 26m
Waning Crescent, 4% of the Moon is Illuminated
Feb 27
Waning Crescent
Mar 1
New
Mar 8
First Quarter
Mar 16
Full
Mar 23
Last Quarter

Hourly Weather History & Observations

Time (MST) Temp. Dew Point Humidity Pressure Visibility Wind Dir Wind Speed Gust Speed Precip Events Conditions
12:58 AM 55.8 °F 33.8 °F 44% 29.93 in 10.0 mi NNE 4.6 mph - N/A   Clear
1:58 AM 55.4 °F 33.4 °F 43% 29.92 in 10.0 mi SE 5.8 mph - N/A   Clear
2:58 AM 53.8 °F 34.9 °F 49% 29.90 in 10.0 mi East 4.6 mph - N/A   Clear
3:58 AM 51.3 °F 34.9 °F 54% 29.90 in 10.0 mi SE 6.9 mph - N/A   Clear
4:58 AM 51.8 °F 35.4 °F 54% 29.89 in 10.0 mi SE 5.8 mph - N/A   Clear
5:58 AM 48.9 °F 34.2 °F 57% 29.91 in 10.0 mi SE 4.6 mph - N/A   Clear
6:58 AM 50.2 °F 34.5 °F 55% 29.93 in 10.0 mi Calm Calm - N/A   Clear
7:58 AM 52.5 °F 34.5 °F 50% 29.96 in 10.0 mi SSE 6.9 mph - N/A   Clear
8:58 AM 58.1 °F 35.1 °F 42% 29.96 in 10.0 mi SSE 6.9 mph - N/A   Clear
9:58 AM 63.3 °F 35.4 °F 35% 29.96 in 10.0 mi ESE 4.6 mph - N/A   Clear
10:58 AM 66.2 °F 34.5 °F 31% 29.93 in 10.0 mi Variable 1.2 mph - N/A   Clear
11:58 AM 68.7 °F 35.6 °F 30% 29.91 in 10.0 mi NE 1.2 mph - N/A   Clear
12:58 PM 71.4 °F 35.2 °F 27% 29.88 in 10.0 mi SW 5.8 mph - N/A   Clear
1:58 PM 74.3 °F 34.7 °F 24% 29.85 in 10.0 mi NW 10.4 mph 18.4 mph N/A   Clear
2:58 PM 74.7 °F 34.9 °F 23% 29.82 in 10.0 mi North 6.9 mph - N/A   Scattered Clouds
3:54 PM 75.2 °F 33.8 °F 22% 29.88 in 10.0 mi West 16.1 mph 19.6 mph N/A   Clear
3:58 PM 76.3 °F 34.0 °F 21% 29.80 in 10.0 mi West 17.3 mph 23.0 mph N/A   Clear
4:58 PM 75.7 °F 33.3 °F 21% 29.79 in 10.0 mi West 15.0 mph - N/A   Clear
5:58 PM 73.4 °F 32.9 °F 23% 29.80 in 10.0 mi West 11.5 mph - N/A   Partly Cloudy
6:58 PM 70.7 °F 34.0 °F 26% 29.81 in 10.0 mi WNW 9.2 mph - N/A   Clear
7:58 PM 67.5 °F 37.8 °F 34% 29.83 in 10.0 mi NW 10.4 mph - N/A   Clear
8:58 PM 64.8 °F 38.1 °F 37% 29.83 in 10.0 mi NW 5.8 mph - N/A   Clear
9:58 PM 62.2 °F 38.5 °F 41% 29.83 in 10.0 mi West 4.6 mph - N/A   Clear
10:58 PM 58.6 °F 36.7 °F 44% 29.83 in 10.0 mi South 6.9 mph - N/A   Clear
11:58 PM 57.9 °F 36.5 °F 45% 29.83 in 10.0 mi SE 8.1 mph - N/A   Clear